FW9676 Weather Reports


Display with metric or nautical units.
time (UTC)temp
F
wind
direction
speed
MPH
gust
MPH
rain 1hr
in
rain 24hr
in
rain mn
in
humidity
%
barometer
mb
20260503224013 64 178 4.0 16.0 0.00 0.00 0.00 75 1013.5
20260503223512 64 267 7.0 16.0 0.00 0.00 0.00 74 1013.6
20260503223030 64 269 7.0 14.0 0.00 0.00 0.00 74 1013.6
20260503222514 64 292 7.0 14.0 0.00 0.00 0.00 73 1013.6
20260503222015 64 228 4.0 14.0 0.00 0.00 0.00 72 1013.6
20260503221536 65 227 5.0 14.0 0.00 0.00 0.00 72 1013.7
20260503221014 65 223 5.0 14.0 0.00 0.00 0.00 72 1013.7
20260503220511 65 266 4.0 11.0 0.00 0.00 0.00 71 1013.7
20260503220034 65 229 5.0 13.0 0.00 0.00 0.00 71 1013.7
20260503215513 64 269 4.0 14.0 0.00 0.00 0.00 71 1013.8
20260503215014 64 265 5.0 14.0 0.00 0.00 0.00 70 1013.9
20260503214529 64 226 6.0 14.0 0.00 0.00 0.00 70 1013.9
20260503214014 64 257 5.0 12.0 0.00 0.00 0.00 70 1013.8
20260503213517 65 260 4.0 12.0 0.00 0.00 0.00 69 1013.9
20260503213032 65 235 3.0 13.0 0.00 0.00 0.00 69 1014.0
20260503212513 65 223 5.0 13.0 0.00 0.00 0.00 69 1014.0
20260503212011 65 265 4.0 13.0 0.00 0.00 0.00 68 1014.1
20260503211536 65 244 5.0 13.0 0.00 0.00 0.00 67 1014.0
20260503211011 66 305 4.0 12.0 0.00 0.00 0.00 68 1014.0
20260503210512 66 238 5.0 13.0 0.00 0.00 0.00 68 1014.1
20260503210032 65 248 4.0 13.0 0.00 0.00 0.00 69 1014.0
20260503205522 65 229 5.0 10.0 0.00 0.00 0.00 69 1014.0
20260503205014 65 238 4.0 14.0 0.00 0.00 0.00 70 1014.1
20260503204531 65 248 6.0 14.0 0.00 0.00 0.00 70 1014.1
20260503204013 65 218 4.0 13.0 0.00 0.00 0.00 69 1014.0
20260503203513 66 259 5.0 12.0 0.00 0.00 0.00 69 1014.1
20260503203032 65 266 5.0 14.0 0.00 0.00 0.00 69 1014.1
20260503202511 66 265 5.0 14.0 0.00 0.00 0.00 68 1014.1
20260503202012 66 184 4.0 14.0 0.00 0.00 0.00 69 1014.1
20260503201530 65 226 3.0 14.0 0.00 0.00 0.00 70 1014.1
20260503201013 65 264 5.0 13.0 0.00 0.00 0.00 68 1014.2
20260503200513 65 5 5.0 12.0 0.00 0.00 0.00 69 1014.1
20260503200030 65 271 3.0 12.0 0.00 0.00 0.00 69 1014.2
20260503195514 65 205 5.0 12.0 0.00 0.00 0.00 68 1014.2
20260503195014 65 235 4.0 10.0 0.00 0.00 0.00 66 1014.3
20260503194535 65 261 3.0 10.0 0.00 0.00 0.00 68 1014.3
20260503194014 65 273 5.0 11.0 0.00 0.00 0.00 68 1014.4
20260503193511 64 225 2.0 11.0 0.00 0.00 0.00 69 1014.4
20260503193039 64 276 5.0 11.0 0.00 0.00 0.00 69 1014.5
20260503192514 64 273 4.0 10.0 0.00 0.00 0.00 69 1014.5
20260503192015 65 264 4.0 10.0 0.00 0.00 0.00 70 1014.5
20260503191530 65 281 4.0 11.0 0.00 0.00 0.00 70 1014.5
20260503191016 65 219 5.0 11.0 0.00 0.00 0.00 69 1014.5
20260503190515 65 213 3.0 10.0 0.00 0.00 0.00 69 1014.6
20260503190039 65 248 2.0 10.0 0.00 0.00 0.00 70 1014.7
20260503185511 65 261 2.0 11.0 0.00 0.00 0.00 70 1014.6
20260503185010 65 281 4.0 14.0 0.00 0.00 0.00 69 1014.6
20260503184529 65 252 4.0 14.0 0.00 0.00 0.00 68 1014.7
20260503184011 65 173 3.0 10.0 0.00 0.00 0.00 69 1014.8
20260503183513 64 275 4.0 12.0 0.00 0.00 0.00 69 1014.8
20260503183031 65 198 5.0 12.0 0.00 0.00 0.00 69 1014.8
20260503182518 65 252 3.0 10.0 0.00 0.00 0.00 72 1014.9
20260503182017 64 244 3.0 8.0 0.00 0.00 0.00 71 1014.9
20260503181533 64 247 3.0 8.0 0.00 0.00 0.00 72 1014.9
20260503181014 63 199 3.0 7.0 0.00 0.00 0.00 73 1014.9
20260503180514 63 216 4.0 8.0 0.00 0.00 0.00 73 1014.9
20260503180030 63 217 3.0 10.0 0.00 0.00 0.00 74 1014.9
20260503175513 62 271 3.0 10.0 0.00 0.00 0.00 75 1015.0
20260503175013 62 245 4.0 10.0 0.00 0.00 0.00 75 1015.1
20260503174541 62 290 5.0 10.0 0.00 0.00 0.00 75 1014.9
20260503174013 62 269 3.0 8.0 0.00 0.00 0.00 76 1014.9
20260503173511 62 227 3.0 11.0 0.00 0.00 0.00 77 1014.9
20260503173028 62 217 3.0 11.0 0.00 0.00 0.00 78 1014.9
20260503172514 61 249 4.0 9.0 0.00 0.00 0.00 77 1014.9
20260503172014 61 223 3.0 10.0 0.00 0.00 0.00 77 1014.9
20260503171530 62 211 4.0 11.0 0.00 0.00 0.00 78 1014.7
20260503171013 62 265 3.0 11.0 0.00 0.00 0.00 78 1014.7
20260503170514 62 248 6.0 11.0 0.00 0.00 0.00 77 1014.6
20260503151014 60 247 1.0 4.0 0.00 0.00 0.00 82 1014.0
20260503150514 60 250 1.0 4.0 0.00 0.00 0.00 82 1013.9
20260503131013 59 259 0.0 4.0 0.00 0.00 0.00 86 1013.0
20260503130513 59 261 0.0 4.0 0.00 0.00 0.00 86 1013.0
20260503110515 59 212 0.0 3.0 0.00 0.00 0.00 86 1012.7
20260503090513 60 0 0.0 2.0 0.00 0.00 0.00 84 1013.3
20260503081543 60 165 2.0 6.0 0.00 0.00 0.00 84 1013.6
20260503081014 60 188 2.0 4.0 0.00 0.00 0.00 84 1013.6
20260503080515 60 232 1.0 5.0 0.00 0.00 0.00 84 1013.6
20260503072514 59 220 2.0 5.0 0.00 0.00 0.00 86 1013.4
20260503072013 59 217 1.0 4.0 0.00 0.00 0.00 86 1013.3
20260503071539 59 238 1.0 4.0 0.00 0.00 0.00 86 1013.3
20260503071013 59 266 2.0 4.0 0.00 0.00 0.00 86 1013.3
20260503070514 59 234 0.0 4.0 0.00 0.00 0.00 86 1013.3
20260503055014 59 267 1.0 7.0 0.00 0.00 0.00 90 1013.1
20260503054535 59 229 2.0 7.0 0.00 0.00 0.00 90 1013.1
20260503054015 59 279 1.0 7.0 0.00 0.00 0.00 90 1013.0
20260503053512 59 244 2.0 7.0 0.00 0.00 0.00 90 1013.0
20260503053032 59 263 2.0 6.0 0.00 0.00 0.00 90 1013.2
20260503052514 59 257 2.0 4.0 0.00 0.00 0.00 90 1013.3
20260503052018 59 252 1.0 7.0 0.00 0.00 0.00 90 1013.2
20260503051530 59 244 3.0 8.0 0.00 0.00 0.00 90 1013.3
20260503051012 59 265 4.0 8.0 0.00 0.00 0.00 90 1013.3
20260503050513 59 271 2.0 9.0 0.00 0.00 0.00 90 1013.3
20260503050032 59 269 5.0 9.0 0.00 0.00 0.00 90 1013.3
20260503045514 59 265 2.0 7.0 0.00 0.00 0.00 90 1013.3
20260503045011 59 270 2.0 6.0 0.00 0.00 0.00 90 1013.3
20260503044529 59 238 2.0 8.0 0.00 0.00 0.00 90 1013.3
20260503044012 59 232 1.0 8.0 0.00 0.00 0.00 90 1013.2
20260503043512 59 252 3.0 8.0 0.00 0.00 0.00 90 1013.2
20260503043031 59 219 1.0 9.0 0.00 0.00 0.00 90 1013.0
20260503042514 59 294 4.0 9.0 0.00 0.00 0.00 90 1012.9
20260503042014 59 232 1.0 6.0 0.00 0.00 0.00 90 1012.9
20260503041528 59 234 2.0 6.0 0.00 0.00 0.00 90 1012.8
20260503041012 59 229 1.0 7.0 0.00 0.00 0.00 90 1012.7
20260503040516 59 237 1.0 8.0 0.00 0.00 0.00 89 1012.5
20260503040032 59 236 2.0 8.0 0.00 0.00 0.00 89 1012.3
20260503035513 59 254 3.0 8.0 0.00 0.00 0.00 89 1012.1
20260503035014 60 274 3.0 8.0 0.00 0.00 0.00 89 1012.3
20260503034534 60 267 3.0 8.0 0.00 0.00 0.00 89 1012.3
20260503034014 60 220 1.0 7.0 0.00 0.00 0.00 89 1012.2
20260503033514 60 290 2.0 9.0 0.00 0.00 0.00 88 1012.0
20260503033032 60 221 2.0 9.0 0.00 0.00 0.00 88 1012.0
20260503032512 60 267 1.0 7.0 0.00 0.00 0.00 88 1012.0
20260503032012 60 267 3.0 7.0 0.00 0.00 0.00 88 1011.9
20260503031531 60 202 1.0 9.0 0.00 0.00 0.00 88 1011.8
20260503031014 60 219 1.0 9.0 0.00 0.00 0.00 88 1011.7
20260503030517 60 262 4.0 9.0 0.00 0.00 0.00 88 1011.6
20260503030030 60 273 2.0 6.0 0.00 0.00 0.00 88 1011.5
20260503025514 60 267 1.0 6.0 0.00 0.00 0.00 88 1011.4
20260503025015 60 214 1.0 6.0 0.00 0.00 0.00 87 1011.4
20260503024532 60 289 1.0 5.0 0.00 0.00 0.00 87 1011.2
20260503024012 60 259 1.0 9.0 0.00 0.00 0.00 87 1011.1
20260503023513 60 216 3.0 9.0 0.00 0.00 0.00 87 1011.1
20260503023030 60 271 3.0 11.0 0.00 0.00 0.00 87 1011.1
20260503022512 60 225 4.0 11.0 0.00 0.00 0.00 87 1011.1
20260503022014 60 226 3.0 10.0 0.00 0.00 0.00 87 1011.0
20260503021532 60 210 2.0 10.0 0.00 0.00 0.00 87 1011.0
20260503021013 60 240 4.0 13.0 0.00 0.00 0.00 86 1011.0
20260503020513 60 227 4.0 13.0 0.00 0.00 0.00 86 1011.0
20260503020032 61 272 5.0 13.0 0.00 0.00 0.00 86 1011.0
20260503015513 61 205 4.0 10.0 0.00 0.00 0.00 85 1010.9
20260503015014 61 219 4.0 10.0 0.00 0.00 0.00 85 1010.9
20260503014534 61 235 3.0 12.0 0.00 0.00 0.00 85 1010.9
20260503014014 61 211 3.0 12.0 0.00 0.00 0.00 85 1011.0
20260503013514 62 260 6.0 12.0 0.00 0.00 0.00 84 1010.9
20260503013030 62 194 4.0 12.0 0.00 0.00 0.00 83 1010.9
20260503012514 62 271 3.0 12.0 0.00 0.00 0.00 83 1010.9
20260503012019 62 250 4.0 11.0 0.00 0.00 0.00 83 1011.0
20260503011532 62 256 4.0 12.0 0.00 0.00 0.00 82 1010.9
20260503011013 63 216 5.0 14.0 0.00 0.00 0.00 81 1010.9
20260503010514 64 284 6.0 14.0 0.00 0.00 0.00 81 1010.8
20260503010030 64 252 4.0 12.0 0.00 0.00 0.00 81 1010.9
20260503005511 64 322 5.0 12.0 0.00 0.00 0.00 81 1011.0
20260503005016 64 278 5.0 15.0 0.00 0.00 0.00 81 1010.9
20260503004532 64 227 6.0 15.0 0.00 0.00 0.00 81 1010.8
20260503004013 64 257 5.0 13.0 0.00 0.00 0.00 80 1010.9
20260503003514 63 273 6.0 13.0 0.00 0.00 0.00 81 1010.9
20260503003047 63 266 6.0 13.0 0.00 0.00 0.00 80 1010.9
20260503002513 64 231 4.0 11.0 0.00 0.00 0.00 80 1011.0
20260503002013 64 174 2.0 12.0 0.00 0.00 0.00 81 1011.0
20260503001549 64 227 4.0 12.0 0.00 0.00 0.00 80 1011.1
20260503001013 64 252 4.0 11.0 0.00 0.00 0.00 79 1011.2
20260503000512 64 269 5.0 11.0 0.00 0.00 0.00 79 1011.2
20260503000032 64 210 5.0 12.0 0.00 0.00 0.00 78 1011.2
20260502235514 64 213 5.0 12.0 0.00 0.00 0.00 77 1011.2
20260502235013 65 235 5.0 12.0 0.00 0.00 0.00 77 1011.2
20260502234535 65 223 5.0 12.0 0.00 0.00 0.00 77 1011.3
20260502234014 65 214 6.0 12.0 0.00 0.00 0.00 77 1011.3
20260502233513 65 224 5.0 12.0 0.00 0.00 0.00 76 1011.3
20260502233032 65 210 4.0 12.0 0.00 0.00 0.00 76 1011.3
20260502232513 65 225 5.0 12.0 0.00 0.00 0.00 77 1011.2
20260502232011 64 257 5.0 12.0 0.00 0.00 0.00 78 1011.4
20260502231533 65 250 5.0 12.0 0.00 0.00 0.00 77 1011.6
20260502231014 64 220 5.0 13.0 0.00 0.00 0.00 77 1011.6
20260502230514 65 255 4.0 13.0 0.00 0.00 0.00 78 1011.5
20260502230035 64 275 6.0 14.0 0.00 0.00 0.00 77 1011.5
20260502225514 64 296 6.0 14.0 0.00 0.00 0.00 77 1011.6
20260502225016 65 243 5.0 14.0 0.00 0.00 0.00 77 1011.5
20260502224529 65 262 6.0 14.0 0.00 0.00 0.00 77 1011.6